Location: Evensen
(52.5775°N, 9.5258°E)
Time: 11:44:30
(UTC+00:00)

Cosmos 1470 - Pass Details

Date: 15 May 2026
Orbit: 420 x 431 km, 82.5° (Epoch: 6 June)

Event Time Altitude Azimuth Distance (km) Brightness Sun altitude
Rises 22:43:32 0° 342° (NNW) 2,390 7.7 -18.0°
Reaches altitude 10° 22:45:40 10° 334° (NNW) 1,518 6.2 -18.0°
Maximum altitude 22:48:43 36° 266° (W) 691 3.3 -18.1°
Enters shadow 22:49:18 33° 241° (WSW) 736 3.2 -18.1°
